Wind_Speed
39 39 39 38 37 38 41 39 36 36 42 47 45 44 41 37 33 37 38 27 22 23 25 25 26 24 23 22 23 21 23 24 27 24 17 16 18 17 16 18 18 26 26 25 25
43 44 44 43 43 42 42 44 44 42 41 42 47 49 47 47 44 43 34 33 25 27 26 26 27 26 27 28 26 28 32 30 25 26 25 20 24 26 21 20 19 22 31 31 25
42 43 43 43 44 44 46 47 46 46 44 43 43 45 50 53 53 51 42 38 32 29 28 26 27 29 30 30 32 36 39 29 29 29 30 30 30 26 25 27 20 24 27 27 23
40 40 41 42 42 43 44 44 45 45 46 46 47 46 47 51 57 51 49 41 36 35 32 30 30 34 32 35 32 41 40 35 29 27 35 35 33 31 27 26 21 23 34 36 30
44 43 43 44 44 43 43 43 42 42 44 47 48 49 49 56 61 43 51 45 44 42 37 34 35 35 35 33 32 43 36 36 36 38 38 36 33 36 33 25 21 28 28 32 31
44 45 45 45 46 46 45 44 42 41 42 44 47 48 52 62 50 42 48 55 50 41 34 33 30 31 37 34 40 38 41 39 38 40 42 40 39 36 37 29 28 32 34 31 30
35 38 40 42 43 45 46 45 44 44 44 44 46 49 58 61 44 37 43 50 50 51 44 37 30 32 34 36 38 40 43 41 41 41 42 37 45 44 38 33 32 32 32 32 32
28 27 27 28 31 34 39 42 43 45 46 46 47 48 65 50 47 48 43 42 51 48 46 37 30 32 39 37 37 36 39 43 45 40 43 38 54 46 36 36 35 34 34 33 37
28 27 27 26 25 24 25 26 32 41 42 44 48 49 64 50 47 40 43 42 39 48 50 43 38 41 40 34 34 38 44 45 47 42 40 36 46 42 36 36 38 29 29 35 33
29 30 29 28 26 25 25 23 23 29 34 41 46 48 46 21 16 34 43 42 39 47 41 41 46 50 50 41 37 38 45 46 50 41 26 31 36 35 30 31 27 31 31 27 25
31 30 30 31 29 28 27 27 26 28 33 39 40 45 36 13 30 22 16 31 42 45 52 47 44 58 56 52 48 45 38 38 49 38 32 33 32 32 24 27 27 26 27 23 21
29 30 31 30 31 30 28 24 28 29 38 34 41 54 46 34 24 25 34 30 39 50 49 46 67 55 49 48 43 43 42 49 46 39 30 31 32 29 23 21 22 23 23 24 24
25 25 25 26 26 24 24 22 24 29 38 45 37 43 42 44 46 33 29 33 37 40 54 61 59 56 46 44 46 48 46 47 46 30 27 30 36 25 20 22 12 13 15 24 25
23 22 23 24 23 20 20 24 22 24 25 36 27 20 18 35 58 44 37 31 36 42 46 55 57 23 52 50 50 45 46 44 41 33 22 4 9 21 25 22 19 18 22 23 24
22 21 22 23 23 19 22 21 17 12 6 6 7 9 11 22 26 32 48 38 39 36 35 47 41 53 32 44 47 52 41 36 34 33 31 33 17 33 23 24 20 21 20 23 21
25 25 27 24 20 22 20 18 18 9 8 5 3 14 17 12 25 16 31 53 40 32 36 40 34 41 61 38 34 38 32 21 25 33 20 40 16 21 28 24 15 9 9 11 13
28 30 28 26 20 20 17 15 14 11 9 6 12 19 15 9 8 34 16 41 58 37 43 37 36 28 34 48 36 38 31 5 6 9 6 25 15 33 11 13 18 18 15 14 11
29 29 25 24 20 18 16 16 15 9 26 29 28 21 14 20 7 17 30 29 55 54 30 33 22 46 36 39 47 47 39 15 7 4 5 22 10 28 17 17 20 21 17 13 13
27 22 19 15 11 11 13 14 9 17 13 16 24 12 14 19 20 10 28 30 32 50 28 30 32 10 46 36 32 38 49 39 6 5 1 9 26 32 24 28 26 17 16 13 11
25 17 9 6 6 7 11 17 19 15 9 13 15 8 14 19 19 19 6 3 18 34 37 8 21 28 15 37 43 41 27 32 29 5 4 6 12 19 16 8 9 14 13 12 8
23 15 8 10 9 7 12 13 18 15 20 14 11 13 20 19 15 18 8 3 8 12 42 32 10 8 30 40 48 42 30 30 30 17 5 2 12 17 16 16 16 13 13 7 7
18 9 10 10 12 8 5 7 11 10 8 16 25 21 18 14 14 18 14 10 13 8 7 37 20 21 39 13 31 47 48 30 26 19 28 14 21 12 13 16 20 18 13 7 5
16 5 10 15 14 13 12 10 14 11 8 8 8 17 14 17 10 12 7 5 6 8 18 10 26 26 15 22 18 41 53 53 34 18 13 16 21 20 25 21 16 23 14 10 7
20 6 7 10 15 16 15 11 17 12 13 8 12 9 14 16 13 19 22 19 18 18 11 5 17 39 28 21 36 33 43 42 43 33 33 33 26 26 19 15 19 21 15 8 4
21 9 9 12 10 13 16 13 18 18 11 5 7 10 11 20 14 15 16 23 20 19 7 13 12 24 43 42 12 32 33 45 49 46 36 39 33 25 19 20 20 19 16 9 5
22 16 15 11 11 14 12 13 14 15 18 7 10 11 10 16 14 17 12 18 20 12 8 16 12 16 30 41 50 28 21 33 48 45 41 38 34 30 19 25 20 21 10 5 6
19 17 18 14 15 14 11 12 13 17 12 9 12 14 16 13 13 11 10 17 19 24 23 18 16 19 15 31 33 33 44 26 31 44 48 43 38 31 25 30 24 24 12 9 9
Wind_Direction
269 270 268 265 264 260 258 258 261 264 263 256 255 250 249 244 234 233 233 233 231 234 227 230 240 246 245 242 247 248 236 249 266 271 288 273 298 292 271 302 309 305 312 310 293
270 269 268 266 265 263 261 260 260 262 262 259 255 254 254 250 243 234 228 230 222 223 230 231 243 244 250 253 245 243 241 257 272 283 281 275 276 290 282 275 294 304 307 306 296
270 269 268 266 264 261 260 259 258 259 260 256 254 255 254 254 250 240 234 236 235 235 229 233 237 237 239 248 248 253 251 269 270 278 282 280 278 285 282 279 297 306 300 310 295
270 269 268 268 265 263 261 259 256 255 254 253 252 253 253 253 253 252 242 241 241 241 235 237 238 238 241 245 255 248 257 265 274 271 275 277 286 272 263 279 291 289 289 298 292
273 271 269 267 267 266 263 261 260 257 254 253 253 254 254 252 247 247 247 248 249 248 241 242 244 248 249 257 250 249 268 271 271 270 271 276 271 272 264 262 283 297 288 287 294
272 272 271 269 268 267 265 264 263 259 255 253 253 252 251 251 252 244 238 242 241 241 243 234 238 246 247 252 254 267 268 266 265 265 267 269 268 263 262 266 280 292 291 284 288
277 274 271 270 269 267 268 267 262 260 258 253 252 252 251 250 253 249 238 235 235 240 245 248 237 236 250 254 256 260 263 262 258 262 267 270 270 260 269 269 277 282 284 279 279
292 287 281 277 273 268 265 264 263 260 254 254 254 252 253 251 248 244 246 239 235 235 236 240 229 234 243 249 252 260 260 263 263 266 275 265 266 278 276 271 274 277 275 272 282
297 294 290 286 283 280 275 269 264 259 257 254 254 254 259 262 251 248 245 245 236 233 234 232 225 237 238 237 247 248 255 258 268 271 270 262 268 278 276 276 278 279 271 280 282
292 290 291 290 288 285 283 283 269 265 255 250 250 251 256 254 282 228 234 235 228 227 229 225 229 234 235 226 223 239 250 259 270 278 278 274 275 279 278 285 278 270 277 280 266
294 291 285 284 288 288 287 285 280 275 259 245 245 248 239 264 225 214 216 223 221 220 223 224 225 228 230 233 242 251 251 256 265 266 273 275 279 274 277 278 285 279 283 264 248
294 291 290 286 283 285 288 285 281 276 270 252 250 251 241 236 230 219 224 217 214 221 216 218 226 229 231 231 235 238 239 252 264 265 271 275 279 271 261 280 288 286 267 259 260
303 299 295 292 290 283 280 273 270 277 283 272 266 262 257 233 235 223 231 222 222 221 218 222 232 226 231 231 227 233 238 249 256 267 274 286 284 263 250 280 284 289 270 257 273
313 309 303 296 290 288 280 272 270 273 298 294 281 281 266 238 241 225 227 225 224 226 222 225 221 231 230 227 226 234 239 247 256 268 267 313 300 272 263 271 273 282 289 269 276
324 319 313 307 300 291 263 261 256 275 297 336 69 14 289 230 224 235 220 219 225 226 214 224 226 217 221 227 228 237 237 243 254 263 273 267 269 273 264 278 267 283 288 265 271
320 317 315 310 304 285 275 254 234 232 238 294 246 342 358 280 216 195 215 216 224 219 230 234 236 234 233 227 229 234 230 242 261 255 265 266 247 278 265 260 282 306 291 261 260
321 315 314 307 299 278 266 241 221 221 234 242 328 325 3 333 217 197 210 210 210 210 223 228 225 226 230 222 218 223 230 234 253 227 224 253 246 254 257 273 273 292 274 264 266
322 316 311 302 290 278 255 227 221 249 248 284 305 329 347 12 97 197 203 219 216 213 212 212 221 219 211 215 213 216 210 187 201 197 191 242 238 244 244 270 287 283 266 236 252
329 324 312 310 310 281 253 217 225 247 277 306 296 321 331 330 337 324 214 224 221 211 212 210 228 247 223 209 206 213 213 213 256 260 118 203 242 257 266 265 276 255 237 213 243
340 334 320 344 344 310 249 242 237 239 261 280 314 311 323 324 326 332 188 255 244 221 210 238 227 226 220 216 223 218 207 203 215 205 198 250 233 224 239 251 245 233 214 223 232
342 333 319 317 325 322 243 257 260 258 261 279 267 297 301 308 304 317 275 39 58 192 210 216 208 224 202 210 206 200 194 206 213 231 168 185 244 224 234 251 273 252 204 218 242
350 357 348 329 270 320 281 303 316 309 290 269 259 277 297 294 284 285 275 309 332 17 194 214 232 241 208 210 224 211 205 196 190 195 229 240 258 251 236 241 257 224 205 206 203
358 9 6 31 20 13 2 336 327 332 308 292 257 252 287 294 288 271 262 256 316 3 352 192 217 239 254 235 213 208 211 209 215 206 213 197 244 247 250 261 211 211 196 175 178
7 11 15 19 7 359 350 0 356 347 308 294 269 266 304 288 267 266 272 286 291 308 340 274 232 217 220 225 207 212 215 211 219 219 228 235 240 246 249 224 184 194 196 177 171
4 0 359 344 3 359 350 342 345 351 329 297 278 278 286 302 294 260 281 290 294 285 269 333 288 239 229 229 215 224 221 214 214 220 215 232 237 239 231 210 186 196 193 192 210
1 359 338 343 331 335 329 329 331 333 349 280 285 289 274 296 309 298 263 274 291 252 266 348 315 280 241 229 234 235 200 224 223 221 226 236 233 238 227 203 200 200 185 206 177
354 355 347 5 350 332 321 316 322 328 324 314 310 292 284 302 291 307 285 268 274 292 281 308 322 329 256 228 235 246 231 214 220 225 225 224 230 226 214 205 210 210 203 219 192
Height
3128 3127 3127 3127 3127 3128 3129 3129 3130 3131 3132 3133 3134 3135 3135 3136 3136 3139 3143 3152 3151 3151 3151 3151 3154 3154 3153 3152 3153 3153 3154 3152 3151 3151 3151 3153 3151 3151 3149 3147 3146 3144 3144 3143 3142
3120 3119 3118 3118 3118 3118 3119 3120 3121 3122 3124 3123 3124 3126 3127 3127 3129 3129 3144 3141 3144 3144 3146 3147 3149 3147 3147 3149 3147 3145 3145 3145 3148 3148 3148 3148 3147 3145 3142 3141 3140 3141 3141 3139 3137
3110 3109 3108 3108 3108 3109 3109 3110 3111 3112 3113 3113 3114 3116 3117 3118 3119 3124 3131 3134 3138 3139 3140 3140 3142 3140 3140 3140 3141 3138 3137 3141 3142 3144 3142 3142 3141 3142 3137 3134 3136 3136 3136 3136 3133
3103 3102 3101 3099 3099 3098 3098 3099 3101 3102 3102 3103 3104 3105 3107 3107 3105 3115 3124 3127 3129 3133 3132 3133 3133 3133 3131 3130 3137 3131 3133 3135 3136 3139 3138 3136 3137 3133 3132 3131 3131 3131 3131 3130 3129
3093 3092 3090 3089 3088 3087 3087 3088 3089 3090 3091 3093 3093 3094 3095 3090 3088 3110 3116 3117 3121 3124 3125 3126 3125 3127 3125 3128 3129 3123 3128 3128 3129 3130 3131 3131 3129 3126 3122 3126 3126 3125 3124 3125 3124
3082 3081 3080 3078 3077 3076 3076 3077 3078 3080 3081 3082 3082 3082 3080 3069 3091 3103 3105 3104 3109 3113 3116 3117 3120 3122 3117 3121 3120 3122 3119 3120 3122 3123 3123 3123 3120 3121 3117 3120 3119 3120 3119 3120 3119
3073 3070 3068 3066 3065 3065 3064 3065 3066 3067 3068 3070 3070 3070 3064 3059 3082 3086 3088 3093 3100 3104 3107 3112 3115 3114 3113 3115 3116 3114 3111 3112 3114 3116 3114 3119 3112 3110 3113 3115 3114 3114 3113 3114 3113
3067 3064 3061 3059 3057 3056 3054 3054 3055 3056 3057 3059 3060 3059 3039 3062 3070 3072 3081 3084 3091 3094 3101 3105 3107 3106 3104 3109 3108 3108 3106 3103 3107 3112 3109 3114 3097 3104 3108 3109 3107 3107 3107 3107 3107
3060 3058 3056 3053 3052 3050 3048 3046 3045 3043 3046 3048 3047 3049 3031 3051 3057 3069 3069 3073 3083 3086 3090 3097 3098 3096 3100 3100 3101 3100 3096 3097 3100 3105 3104 3105 3094 3096 3101 3102 3101 3101 3102 3100 3099
3054 3052 3050 3047 3046 3044 3042 3040 3038 3035 3035 3036 3037 3039 3036 3044 3046 3048 3055 3061 3068 3076 3080 3081 3085 3084 3086 3088 3080 3093 3092 3095 3092 3095 3099 3096 3092 3091 3092 3096 3094 3094 3094 3093 3092
3047 3045 3043 3041 3040 3038 3037 3034 3033 3029 3024 3024 3022 3025 3027 3033 3035 3041 3044 3048 3054 3060 3060 3070 3075 3059 3070 3079 3084 3088 3088 3087 3086 3093 3095 3091 3088 3086 3087 3089 3089 3088 3088 3087 3088
3039 3037 3035 3034 3033 3032 3030 3028 3023 3019 3009 3014 3014 3009 3021 3030 3033 3036 3037 3041 3041 3042 3054 3063 3040 3058 3068 3076 3080 3081 3083 3079 3081 3088 3092 3085 3083 3082 3082 3083 3084 3083 3082 3083 3084
3034 3031 3029 3027 3026 3026 3024 3021 3018 3014 3006 3001 3007 3004 3012 3023 3019 3030 3031 3031 3035 3037 3039 3038 3041 3057 3062 3068 3071 3074 3076 3077 3079 3087 3085 3081 3075 3076 3078 3079 3079 3079 3078 3079 3079
3029 3026 3023 3021 3022 3020 3019 3015 3015 3013 3007 2995 2997 2996 3000 3004 2998 3021 3021 3028 3030 3030 3038 3038 3046 3050 3053 3054 3064 3067 3071 3077 3078 3082 3080 3079 3075 3071 3075 3075 3075 3076 3075 3075 3075
3024 3021 3018 3015 3014 3015 3012 3011 3012 3012 3010 2996 2991 2991 2987 2987 2998 3001 3016 3020 3020 3025 3031 3022 3033 3043 3044 3045 3061 3058 3072 3075 3076 3075 3075 3073 3078 3064 3070 3069 3070 3071 3070 3070 3071
3021 3017 3013 3012 3010 3006 3006 3007 3009 3013 3001 2992 2990 2988 2984 2981 2984 2993 2996 3011 3018 3022 3022 3026 3029 3033 3030 3046 3054 3062 3069 3073 3073 3073 3067 3063 3073 3057 3063 3065 3066 3066 3066 3067 3069
3016 3011 3007 3003 3003 3000 3000 3003 3007 3002 2996 2990 2984 2984 2983 2977 2979 2984 2989 2992 2998 3010 3010 3017 3020 3025 3033 3043 3051 3058 3064 3069 3068 3066 3059 3059 3064 3052 3054 3059 3062 3064 3065 3065 3066
3011 3005 3001 2997 2995 2994 2995 2999 2997 2991 2992 2986 2984 2986 2984 2978 2976 2974 2981 2984 2990 2997 3003 3010 3015 3016 3020 3026 3035 3044 3051 3054 3061 3058 3053 3054 3053 3046 3052 3055 3057 3058 3059 3060 3063
3006 3000 2996 2993 2991 2990 2993 2993 2990 2989 2990 2987 2983 2985 2984 2984 2984 2976 2977 2984 2989 2995 3003 3007 3008 3012 3015 3023 3031 3033 3034 3049 3051 3049 3047 3046 3047 3047 3050 3051 3052 3053 3054 3058 3060
3002 2997 2994 2991 2990 2989 2990 2988 2987 2988 2988 2989 2988 2988 2986 2984 2986 2982 2980 2983 2985 2992 3002 3004 3005 3008 3013 3020 3022 3024 3035 3046 3047 3048 3047 3042 3041 3043 3047 3047 3048 3050 3053 3057 3057
2999 2994 2993 2991 2989 2988 2988 2986 2985 2986 2988 2988 2987 2986 2985 2984 2985 2985 2980 2982 2980 2983 2991 2997 2999 3000 3006 2997 3003 3019 3024 3029 3036 3037 3040 3042 3035 3039 3043 3045 3047 3049 3052 3054 3056
2997 2994 2992 2989 2989 2988 2986 2986 2985 2984 2984 2982 2983 2984 2983 2982 2981 2984 2981 2981 2981 2982 2984 2991 2992 2992 2992 2997 3003 3009 3017 3020 3021 3027 3030 3034 3029 3036 3039 3042 3044 3047 3051 3053 3054
2996 2994 2993 2990 2988 2988 2986 2985 2983 2981 2981 2979 2980 2981 2981 2979 2980 2978 2978 2977 2978 2981 2983 2984 2986 2989 2992 2997 2998 2997 3000 3007 3017 3024 3024 3033 3027 3031 3036 3038 3038 3045 3048 3051 3052
2998 2995 2994 2992 2990 2988 2985 2985 2982 2980 2977 2976 2977 2979 2978 2975 2974 2971 2975 2976 2976 2976 2980 2980 2977 2978 2973 2978 2987 2990 2998 3006 3013 3018 3019 3020 3024 3029 3033 3035 3037 3043 3047 3049 3050
3000 2997 2995 2993 2991 2989 2987 2984 2981 2978 2976 2976 2975 2977 2977 2972 2970 2969 2971 2973 2975 2973 2976 2977 2972 2974 2974 2980 2985 2989 2993 2999 3002 3008 3015 3015 3022 3027 3032 3034 3038 3041 3045 3047 3049
3001 2997 2994 2992 2991 2988 2986 2983 2980 2977 2975 2974 2974 2975 2974 2972 2971 2968 2968 2969 2970 2971 2971 2973 2971 2968 2967 2974 2978 2985 2989 2995 2998 3006 3011 3015 3018 3024 3029 3034 3036 3040 3043 3045 3048
3000 2997 2994 2992 2988 2986 2984 2981 2978 2976 2974 2972 2971 2971 2970 2969 2968 2968 2965 2966 2966 2967 2969 2971 2971 2970 2963 2972 2980 2983 2975 2986 2992 2998 3003 3007 3012 3019 3024 3029 3034 3038 3041 3044 3046